Location: Arena
(42.5007°N, 9.4650°E)
Time: 00:54:58
(UTC+00:00)

CZ-4C R/B - Pass Details

Date: 09 April 2020
Orbit: 637 x 1365 km, 63.4° (Epoch: 02 June)

Event Time Altitude Azimuth Distance (km) Brightness Sun altitude
Rises 20:51:13 0° 326° (NNW) 3,789 6.8 -28.7°
Reaches altitude 10° 20:53:49 10° 333° (NNW) 2,938 5.9 -29.1°
Maximum altitude 21:00:41 47° 46° (NE) 1,573 3.5 -29.9°
Enters shadow 21:01:50 44° 70° (ENE) 1,652 3.4 -30.1°
